Regional Weather Roundup
Issued by NWS

Home | Current Version | Previous Version | Text Only | Print | Product List | Glossary Off
Versions: 1 2 3 4 5 6 7 8 9 10 11 12 13 14 15 16 17 18 19 20 21 22 23 24 25 26 27 28 29 30 31 32 33 34 35 36 37 38 39 40 41 42 43 44 45 46 47 48 49 50

304
ASUS45 KBOU 231607
RWRCO

WEATHER ROUNDUP FOR COLORADO
NATIONAL WEATHER SERVICE DENVER/BOULDER CO
1000 AM MDT SUN JUL 23 2017

NOTE: "FAIR" INDICATES FEW OR NO CLOUDS BELOW 12000 FEET WITH NO
SIGNIFICANT WEATHER AND/OR OBSTRUCTIONS TO VISIBILITY.

COZ001>005-013-030-031-231700-
...NORTHWEST COLORADO...

CITY           SKY/WX    TMP DP  RH WIND       PRES   REMARKS
CRAIG          FAIR      75  43  31 NE5       30.27F
HAYDEN         FAIR      72  39  30 E8        30.30S
MEEKER         FAIR      71  40  32 CALM      30.28F
RABBIT EARS PA FAIR      61  39  44 CALM      30.60S
STEAMBOAT SPGS FAIR      68  42  38 CALM      30.32F
WALDEN         FAIR      63  41  45 CALM      30.44F
$$

COZ006>008-011-231700-
...WEST CENTRAL VALLEYS...

CITY           SKY/WX    TMP DP  RH WIND       PRES   REMARKS
GRAND JUNCTION FAIR      81  48  31 SE10      30.17F
MONTROSE       FAIR      75  50  41 N6        30.25F
EAGLE          SUNNY     64  45  48 CALM      30.35F
RIFLE          FAIR      75  46  35 N3        30.23F
DELTA          FAIR      76  49  39 CALM      30.22F
NUCLA          FAIR      77  45  31 CALM      30.29F
$$

COZ017>023-064>068-231700-
...SOUTHWEST COLORADO...

CITY           SKY/WX    TMP DP  RH WIND       PRES   REMARKS
DURANGO        FAIR      72  50  45 CALM      30.31S
CORTEZ         FAIR      78  51  38 VRB3      30.24F
PAGOSA SPRINGS PTSUNNY   68  46  45 CALM      30.40S
TELLURIDE      FAIR      67  43  41 CALM      30.50R
WOLF CREEK PAS FAIR      54  41  62 N5        30.74R
$$

COZ009-010-012-014-032>034-037-058>063-231700-
...CENTRAL COLORADO...

CITY           SKY/WX    TMP DP  RH WIND       PRES   REMARKS
ASPEN          FAIR      71  43  36 VRB6      30.37F
BUENA VISTA    FAIR      66  44  44 CALM      30.43F
COPPER MTN     CLOUDY    61  32  33 CALM      30.72S
BERTHOUD PASS  FAIR      50  34  53 CALM      30.76S
COTTONWOOD PAS FAIR      68  45  42 E5        30.57S
GUNNISON       FAIR      61  48  62 VRB5      30.42F
KREMMLING      FAIR      72  43  35 CALM      30.41F
LEADVILLE      FAIR      62  41  46 VRB3      30.54F
SALIDA         FAIR      67  50  53 CALM      30.48F
SUNLIGHT       FAIR      59  41  51 CALM      30.64S
WILKERSON PASS PTSUNNY   59  41  51 S5        30.70S
$$

COZ069>075-231700-
...SAN LUIS VALLEY/SANGRE DE CRISTO MOUNTAINS...

CITY           SKY/WX    TMP DP  RH WIND       PRES   REMARKS
ALAMOSA        PTSUNNY   66  49  54 CALM      30.40S
DEL NORTE      FAIR      67  47  48 E5        30.44S
LA VETA PASS   NOT AVBL
SAGUACHE         N/A    N/A N/A N/A MISG        N/A
$$

COZ035-036-038>040-231700-
...NORTHERN COLORADO FRONT RANGE...

CITY           SKY/WX    TMP DP  RH WIND       PRES   REMARKS
DENVER INTL AP FAIR      80  50  34 VRB5      30.23S
DMNS CITY PARK   N/A     80  50  34 E5        30.23S
AURORA         MOSUNNY   78  52  40 CALM      30.25S
FRONT RANGE AP FAIR      79  50  36 CALM      30.25S
ERIE MUNI ARPT FAIR      78  48  34 CALM      30.21F
BOULDER MUN AP FAIR      75  50  41 SE3       30.22F
CENTENNIAL     FAIR      78  51  38 E5        30.26S
BROOMFIELD     FAIR      77  46  33 CALM      30.25F
FORT COLLINS   FAIR      77  53  43 VRB6      30.21F
LONGMONT       FAIR      80  51  36 SW3       30.22F
$$

COZ041-046-047-076>085-087-088-231700-
...PIKES PEAK/PALMER DIVIDE AND SOUTHERN FOOTHILLS...

CITY           SKY/WX    TMP DP  RH WIND       PRES   REMARKS
COLO. SPRINGS  FAIR      76  53  44 SW3       30.30S
A. F. ACADEMY  FAIR      75  49  39 CALM      30.31F
SCHRIEVER AFB  FAIR      74  52  44 S6        30.31S
CHEYENNE MTN   FAIR      71  55  56 SE5       30.30S
ELLICOTT       FAIR     N/A N/A N/A W5        30.29S
FALCON           N/A     76  47  35 SE6       30.36R
FORT CARSON    FAIR      75  55  49 CALM      30.27S
LIMON          FAIR      78  56  46 CALM      30.24S
MONUMENT HILL  FAIR      73  50  43 S5        30.37S
CANON CITY     SUNNY     79  55  44 MISG      30.24S
WALSENBURG     FAIR      77  52  41 CALM      30.30R
TRINIDAD       FAIR      79  48  33 NW9       30.26F
$$

COZ042>045-048>051-090-091-231700-
...NORTHEAST COLORADO...

CITY           SKY/WX    TMP DP  RH WIND       PRES   REMARKS
GREELEY ARPT   FAIR      74  57  55 NW6       30.20S
AKRON          FAIR      83  47  28 S10       30.19S
BURLINGTON     FAIR      85  52  32 E8        30.16S
WRAY           NOT AVBL
YUMA           FAIR      81  46  30 SE3       30.16S
STERLING       FAIR      79  57  47 S6        30.14F
HOLYOKE        FAIR      84  55  37 CALM      30.14S
FORT MORGAN    FAIR      80  54  40 S6        30.19S
$$

COZ086-089-092>099-231700-
...SOUTHEAST COLORADO...

CITY           SKY/WX    TMP DP  RH WIND       PRES   REMARKS
PUEBLO         FAIR      81  53  37 NW6       30.19F
LA JUNTA       FAIR      81  57  43 NW6       30.16S
LAMAR          FAIR      80  60  50 VRB5      30.12R
SPRINGFIELD      N/A     83  56  39 N13       30.15R
$$




USA.gov is the U.S. government's official web portal to all federal, state and local government web resources and services.